Regional Weather Roundup
Issued by NWS

Home | Current Version | Previous Version | Graphics & Text | Print | Product List | Glossary Off
Versions: 1 2 3 4 5 6 7 8 9 10 11 12 13 14 15 16 17 18 19 20 21 22 23 24 25 26 27 28 29 30 31 32 33 34 35 36 37 38 39 40 41 42 43 44 45 46 47 48 49 50

000
ASUS43 KMPX 240210
RWRMN
WEATHER ROUNDUP FOR MINNESOTA
NATIONAL WEATHER SERVICE TWIN CITIES/CHANHASSEN MN
900 PM CDT WED APR 23 2014


NOTE: "FAIR" INDICATES FEW OR NO CLOUDS BELOW 12,000 FEET WITH NO
SIGNIFICANT WEATHER AND/OR OBSTRUCTIONS TO VISIBILITY. N/A MEANS
CURRENT SKY AND/OR WEATHER CONDITIONS ARE NOT AVAILABLE.

MNZ060>063-068>070-240300-
   Twin Cities Metro

CITY           SKY/WX    TMP DP  RH WIND       PRES   REMARKS
TWIN CITIES    CLOUDY    42  39  89 E17       29.92F
ST PAUL        CLOUDY    43  38  82 E16G23    29.95F
CRYSTAL        CLOUDY    43  37  79 E14G21    29.91F
BLAINE         LGT RAIN  43  41  93 E12G17    29.94S
EDEN PRAIRIE   CLOUDY    43  38  82 E16       29.90S
LAKEVILLE      CLOUDY    39  37  93 E15       29.91S
SOUTH ST PAUL  CLOUDY    44  42  95 SE13G21   29.93F
LAKE ELMO      RAIN      41  37  87 E9G18     29.97S
$$
MNZ001>005-007-008-013>017-022>024-027-028-240300-
   Northwest Minnesota

CITY           SKY/WX    TMP DP  RH WIND       PRES   REMARKS
BEMIDJI        LGT SNOW  33  32  98 E9        29.93R WCI  25
HALLOCK        RAIN      43  39  87 SE17G23   29.89R
ROSEAU         RAIN      45  37  76 SE14G21   29.93R
WARROAD        CLOUDY    46  34  61 S17G24    29.93R
THIEF RVR FALL CLOUDY    39  34  81 SE20G29   29.89F
CROOKSTON      MIX PCPN  39  37  93 SE21G29   29.88R
FOSSTON        RAIN      36  34  93 SE14      29.90S
DETROIT LAKES  LGT RAIN  36  36 100 SE16G24   29.85F
MOORHEAD       RAIN      41  41 100 SE16G25   29.82R
PARK RAPIDS    LGT RAIN  34  33  96 E10       29.91R WCI  26
$$
MNZ006-009>011-018-025>026-240300-
   North Central Minnesota

CITY           SKY/WX    TMP DP  RH WIND       PRES   REMARKS
BAUDETTE       CLOUDY    49  27  42 S10       29.93R
FLAG ISLAND    CLOUDY    48  23  37 SE9       29.90R
INTL FALLS     CLOUDY    49  22  34 SE8       29.95R
WASKISH        LGT RAIN  39  36  87 SE10      29.96R
BIG FORK       LGT RAIN  43  34  70 S12G18    29.98R
LONGVILLE      MIX PCPN  34  32  93 E5        29.94F WCI  30
GRAND RAPIDS   CLOUDY    41  28  60 SE13G24   29.98R
CRANE LAKE     CLOUDY    43  18  36 CALM      30.00R
ORR            CLOUDY    46  19  34 SE3       29.96R
COOK           CLOUDY    45  25  45 SE6       29.99R
$$
MNZ012-019>021-037-240300-
   Northeast Minnesota

CITY           SKY/WX    TMP DP  RH WIND       PRES   REMARKS
DULUTH         LGT RAIN  39  27  62 E9        30.01R
ELY            CLOUDY    43  19  39 E8        30.01R
HIBBING        CLOUDY    45  24  43 SE8       29.99R
EVELETH        CLOUDY    43  23  45 SE6       30.01R
DULUTH HARBOR  MIX PCPN  36  30  80 NE3       30.04R
TWO HARBORS    CLOUDY    37  25  60 E9        30.01R
SILVER BAY     CLOUDY    37  27  65 NE8       30.01S
GRAND MARAIS     N/A     43  23  45 NE6       30.05F
G MARAIS ARPRT CLOUDY    37  18  44 E7        30.04S
$$
MNZ029>031-032-039>041-046>048-054>057-064-240300-
   West Central Minnesota

CITY           SKY/WX    TMP DP  RH WIND       PRES   REMARKS
FERGUS FALLS   LGT RAIN  41  36  81 SE23G29   29.79S
WHEATON        DRIZZLE   43  39  87 SE25G31   29.79F
MORRIS         LGT RAIN  41  36  81 SE25G32   29.79F
ALEXANDRIA     CLOUDY    40  35  83 E18G29    29.86R
ELBOW LAKE     CLOUDY    40  36  84 SE21G33   29.81F
WADENA         CLOUDY    37  36  93 SE21      29.87S
GLENWOOD       CLOUDY    39  36  87 E18G29    29.87R
APPLETON       CLOUDY    43  37  81 E20       29.80S
BENSON         DRIZZLE   43  36  75 SE15G22   29.84R
ORTONVILLE     CLOUDY    43  36  75 E22G30    29.76S
MADISON        CLOUDY    46  39  76 SE18      29.77S
WILLMAR        CLOUDY    43  36  75 E17       29.86R
$$
MNZ033>034-036-042>043-049>051-058-059-240300-
   Central Minnesota

CITY           SKY/WX    TMP DP  RH WIND       PRES   REMARKS
ST CLOUD       CLOUDY    41  37  86 E9        29.92R
SAUK CENTRE    CLOUDY    39  36  88 E15G22    29.88R
PAYNESVILLE    CLOUDY    40  35  82 E16G22    29.88R
AITKIN         LGT RAIN  39  34  81 E5        29.95S
PINE RIVER     LGT RAIN  36  34  93 SE8G18    29.96F
BRAINERD       CLOUDY    42  35  76 SE9       29.96R
STAPLES        CLOUDY    37  36  93 SE12      29.91S
LONG PRAIRIE   CLOUDY    37  36  93 E18       29.90S
LITTLE FALLS   CLOUDY    37  36  93 E10G16    29.93R
LITCHFIELD     CLOUDY    43  39  87 E16       29.88S
BUFFALO        CLOUDY    41  37  83 E13G18    29.92R
MAPLE LAKE     CLOUDY    41  39  92 E10G16    29.92R
$$
MNZ037-044-045-052-053-240300-
   East Central Minnesota

CITY           SKY/WX    TMP DP  RH WIND       PRES   REMARKS
PRINCETON      DRIZZLE   41  37  87 E9        29.95R
MORA           RAIN      36  34  93 E8        29.98F
CAMBRIDGE      LGT RAIN  43  36  75 E7        29.94S
RUSH CITY      LGT RAIN  39  37  93 E7        29.97F
MOOSE LAKE     LGT RAIN  37  32  81 CALM      29.97S
HINCKLEY       RAIN      41  37  87 SE5       29.99R
CLOQUET        LGT RAIN  39  28  65 E12G18    29.98F
MCGREGOR       CLOUDY    39  36  87 SE9       29.99R
$$
MNZ071>073-080-081-089-090-097-098-240300-
   Southwest Minnesota

CITY           SKY/WX    TMP DP  RH WIND       PRES   REMARKS
MONTEVIDEO     CLOUDY    43  37  81 SE16      29.82R
GRANITE FALLS  CLOUDY    43  36  76 E17G25    29.82R
CANBY          CLOUDY    46  38  76 SE18G25   29.76S
MARSHALL       CLOUDY    46  36  66 SE21G28   29.75F
REDWOOD FALLS  CLOUDY    44  37  76 SE22      29.81F
OLIVIA         CLOUDY    43  36  75 SE17G23   29.83R
PIPESTONE      CLOUDY    46  37  71 SE21G30   29.70F
WINDOM         CLOUDY    45  37  76 SE17G29   29.78F
WORTHINGTON    CLOUDY    45  34  65 SE22      29.77F
JACKSON        CLOUDY    45  36  70 SE21G28   29.80F
TRACY          CLOUDY    46  38  74 SE20      29.77F
SLAYTON        CLOUDY    44  38  78 SE21G26   29.76S
$$
MNZ065>067-074>077-082>085-091>093-240300-
   South Central Minnesota

CITY           SKY/WX    TMP DP  RH WIND       PRES   REMARKS
MANKATO        CLOUDY    45  34  65 SE21      29.88R
NEW ULM        CLOUDY    45  37  76 SE16G30   29.86R
ST JAMES       CLOUDY    45  37  76 E15       29.84S
FAIRMONT       CLOUDY    45  36  70 SE20      29.84S
GLENCOE        CLOUDY    42  35  75 E15       29.88R
FARIBAULT      CLOUDY    46  34  61 E7        29.91R
OWATONNA       CLOUDY    45  34  65 SE16G25   29.89R
WASECA         CLOUDY    41  32  70 E17G26    29.89S
ALBERT LEA     CLOUDY    43  37  81 SE18G26   29.86S
$$
MNZ078>079-086>088-094>096-240300-
   Southeast Minnesota

CITY           SKY/WX    TMP DP  RH WIND       PRES   REMARKS
ROCHESTER      CLOUDY    44  35  70 SE16      29.92R
RED WING       CLOUDY    45  39  81 SE14      29.94R
STANTON        CLOUDY    43  36  77 E8        29.91R
DODGE CENTER   CLOUDY    46  36  66 SE17G25   29.91R
WINONA         CLOUDY    43  37  81 SE12      29.97F
AUSTIN         CLOUDY    43  36  75 SE20G25   29.88F
PRESTON        CLOUDY    44  36  73 SE16G23   29.93S
$$
ABBREVIATIONS USED IN REMARKS
   TC - TEMPERATURES IN CELSIUS
  WCI - WIND CHILL INDEX
   HX - HEAT INDEX
  VSB - VISIBILITY
$$



USA.gov is the U.S. government's official web portal to all federal, state and local government web resources and services.